Location: Gu�tanj
(46.5431°N, 14.9692°E)
Time: 12:55:13
(UTC+00:00)

Cosmos 1666 Rocket - Pass Details

Date: 03 March 2021
Orbit: 605 x 632 km, 82.5° (Epoch: 19 April)

Event Time Altitude Azimuth Distance (km) Brightness Sun altitude
Rises 17:20:02 0° 184° (S) 2,857 7.1 -6.1°
Reaches altitude 10° 17:22:14 10° 183° (S) 1,955 6.2 -6.5°
Maximum altitude 17:26:33 78° 98° (E) 626 3.5 -7.2°
Drops below altitude 10° 17:30:54 10° 12° (NNE) 1,964 6.0 -8.0°
Sets 17:33:07 0° 11° (N) 2,872 6.9 -8.4°
